This is the latest recevied weather packets stored in our database for station/object N7WSS. If no packets are shown the sender has not sent any weather packets the latest 10 day(s).
| Time | Temp. | Humidity | Pressure | Rain* | Wind** | Luminosity | Snow |
|---|---|---|---|---|---|---|---|
| 1787751325 | 24.44° C | 48% | 1013.1 hPa | 0 mm | - | - | - |
| 1787751021 | 25° C | 47% | 1013.3 hPa | 0 mm | - | - | - |
| 1787750721 | 23.89° C | 47% | 1013 hPa | 0 mm | - | - | - |
| 1787750420 | 23.33° C | 48% | 1013.1 hPa | 0 mm | - | - | - |
| 1787750115 | 23.89° C | 46% | 1012.9 hPa | 0 mm | - | - | - |
| 1787749812 | 23.33° C | 46% | 1012.9 hPa | 0 mm | - | - | - |
| 1787749507 | 23.33° C | 47% | 1012.8 hPa | 0 mm | - | - | - |
| 1787749208 | 23.89° C | 47% | 1012.7 hPa | 0 mm | - | - | - |
| 1787748902 | 23.89° C | 45% | 1012.6 hPa | 0 mm | - | - | - |
| 1787748596 | 24.44° C | 45% | 1012.8 hPa | 0 mm | - | - | - |
| 1787748292 | 24.44° C | 44% | 1012.6 hPa | 0 mm | - | - | - |
| 1787747988 | 24.44° C | 44% | 1012.6 hPa | 0 mm | - | - | - |
| 1787747683 | 24.44° C | 43% | 1012.5 hPa | 0 mm | - | - | - |
| 1787747382 | 24.44° C | 43% | 1012.7 hPa | 0 mm | - | - | - |
| 1787747078 | 24.44° C | 44% | 1012.6 hPa | 0 mm | - | - | - |
| 1787746775 | 24.44° C | 44% | 1012.5 hPa | 0 mm | - | - | - |
| 1787746473 | 24.44° C | 44% | 1012.7 hPa | 0 mm | - | - | - |
| 1787746172 | 24.44° C | 44% | 1012.7 hPa | 0 mm | - | - | - |
| 1787745867 | 23.89° C | 45% | 1012.9 hPa | 0 mm | - | - | - |
| 1787745565 | 23.89° C | 45% | 1012.7 hPa | 0 mm | - | - | - |
| 1787745260 | 23.89° C | 46% | 1012.7 hPa | 0 mm | - | - | - |
| 1787744956 | 23.89° C | 45% | 1012.6 hPa | 0 mm | - | - | - |
| 1787744652 | 23.89° C | 45% | 1012.6 hPa | 0 mm | - | - | - |
| 1787744348 | 24.44° C | 46% | 1012.6 hPa | 0 mm | - | - | - |
| 1787744043 | 24.44° C | 45% | 1012.6 hPa | 0 mm | - | - | - |
* Rain latest hour (hover to see other rain measurements)
** Current wind speed in m/s (hover to see current wind gust speed)